Aérodrome :
LOGIN :

S'inscrire | Disclaimer

   EN    FR    IT 

 










Légende :    VFR   VFR Marginal   IFR   IFR Intensif   IFR Très Intensif
Visi : 
Plafond : 
>= 8 km
>= 3000ft
5 à 8 km
1000 à 3000 ft
1500m à 5 km
500 à 1000 ft
800 à 1500m
200 à 500 ft
< 800m
< 200 ft
Symboles :   Orages  Brouillard  Fortes neiges  Fortes précipitations  Vent > 20 kt
SIGMETs :   Divers  Orages  Givrage  Turbulence  Onde Orograph.  Cendres Volcan.







- Altitude de l'aérodrome : 1411 ft
- Code IATA : ZHI


LSZG - Grenchen

DERNIER METAR :
  • 160450Z AUTO 23005KT 9999 BKN008 SCT036 01/01 Q1005

METARs EXPIRÉS :
  • 160420Z AUTO 24002KT 5000 -DZ OVC008 01/00 Q1005 RESN
  • 160350Z AUTO 22004KT 5000 -SN BKN/// 01/00 Q1005
  • 160320Z AUTO 24001KT 2800 -SN BKN/// 00/00 Q1004
  • 160250Z AUTO 20002KT 5000 -DZ OVC007 01/00 Q1004 RESN
  • 160220Z AUTO 21003KT 7000 -SN BKN/// 01/00 Q1004

TAF TAF LSZG
Valide du 16 à 03h jusqu'au 16 à 12h UTC


160225Z 1603/1612 24005KT 7000 BKN015
TEMPO 1603/1612 2000 SHSN BKN007
PROB40
TEMPO 1603/1612 SHRASN BKN010
ATIS : +41 32 396 96 33
Pas de NOTAMs connus pour ce terrain.



MET'MAP, la Météo Aéronautique d'un coup d'oeil ! - Copyright ORBIFLY Décembre 2007 - Disclaimer

ORBIFLY MET'MAP TEAM :

Programmation & Développement : Alexandra Zaïnal
Conception & Développement : Baudouin d'Aumeries
Co-Programmation & Développement : Marc-Olivier Méhu
Soutien technique & logistique : Manuel Goepfert

Contact : metmap@orbifly.com




SOURCES & CREDITS :

   NOAA